| time (UTC) | temp F | wind direction | speed knots | gust knots | rain 1hr in | rain 24hr in | rain mn in | humidity % | barometer mb |
| 20260901021803 | 56 | 2 | 5.2 | 11.3 | 0.03 | 0.03 | 0.03 | 79 | |
| 20260901020903 | 57 | 22 | 5.2 | 15.6 | 0.03 | 0.03 | 0.03 | 77 | |
| 20260901020003 | 58 | 18 | 6.1 | 13.0 | 0.03 | 0.03 | 0.03 | 75 | |
| 20260901015614 | 58 | 19 | 6.1 | 13.0 | 0.03 | 0.03 | 0.03 | 74 | |
| 20260901014503 | 60 | 6 | 7.0 | 18.2 | 0.01 | 0.01 | 0.01 | 70 | |
| 20260901013603 | 60 | 359 | 6.1 | 16.5 | 0.00 | 0.00 | 0.00 | 67 | |
| 20260901012914 | 60 | 26 | 4.3 | 12.2 | 0.00 | 0.00 | 0.00 | 65 | |
| 20260901011803 | 61 | 348 | 6.1 | 13.9 | 0.00 | 0.00 | 0.00 | 60 | |
| 20260901010903 | 63 | 343 | 7.8 | 15.6 | 0.00 | 0.00 | 0.00 | 57 | |
| 20260901010003 | 64 | 348 | 6.1 | 11.3 | 0.00 | 0.00 | 0.00 | 59 | |
| 20260901005614 | 64 | 342 | 5.2 | 12.2 | 0.00 | 0.00 | 0.00 | 59 | |
| 20260901004503 | 66 | 342 | 9.6 | 17.4 | 0.00 | 0.00 | 0.00 | 57 | |
| 20260901003603 | 70 | 307 | 11.3 | 21.7 | 0.00 | 0.00 | 0.00 | 51 | |
| 20260901002703 | 75 | 197 | 5.2 | 12.2 | 0.00 | 0.00 | 0.00 | 46 | |
| 20260901001803 | 75 | 173 | 6.1 | 26.1 | 0.00 | 0.00 | 0.00 | 44 | |
| 20260901000903 | 76 | 171 | 4.3 | 10.4 | 0.00 | 0.00 | 0.00 | 45 | |
| 20260901000003 | 76 | 132 | 5.2 | 11.3 | 0.00 | 0.00 | 0.00 | 45 | |
| 20260831235403 | 76 | 122 | 6.1 | 15.6 | 0.00 | 0.00 | 0.00 | 46 | |
| 20260831234503 | 75 | 126 | 7.8 | 15.6 | 0.00 | 0.00 | 0.00 | 46 | |
| 20260831233603 | 74 | 123 | 7.0 | 13.0 | 0.00 | 0.00 | 0.00 | 47 | |
| 20260831232703 | 74 | 131 | 6.1 | 13.0 | 0.00 | 0.00 | 0.00 | 46 | |
| 20260831232013 | 75 | 120 | 7.8 | 16.5 | 0.00 | 0.00 | 0.00 | 45 | |
| 20260831230903 | 76 | 121 | 7.0 | 13.9 | 0.00 | 0.00 | 0.00 | 44 | |
| 20260831230003 | 76 | 120 | 7.0 | 16.5 | 0.00 | 0.00 | 0.00 | 42 | |
| 20260831225403 | 76 | 129 | 7.0 | 16.5 | 0.00 | 0.00 | 0.00 | 43 | |
| 20260831224503 | 76 | 116 | 7.8 | 22.6 | 0.00 | 0.00 | 0.00 | 44 | |
| 20260831223603 | 76 | 117 | 8.7 | 22.6 | 0.00 | 0.00 | 0.00 | 44 | |
| 20260831222703 | 76 | 109 | 6.1 | 18.2 | 0.00 | 0.00 | 0.00 | 46 | |
| 20260831221803 | 76 | 100 | 7.0 | 13.9 | 0.00 | 0.00 | 0.00 | 46 | |
| 20260831220903 | 76 | 120 | 6.1 | 14.8 | 0.00 | 0.00 | 0.00 | 46 | |
| 20260831220003 | 75 | 122 | 6.1 | 11.3 | 0.00 | 0.00 | 0.00 | 46 | |
| 20260831215403 | 74 | 135 | 6.1 | 13.0 | 0.00 | 0.00 | 0.00 | 48 | |
| 20260831214714 | 74 | 138 | 6.1 | 13.0 | 0.00 | 0.00 | 0.00 | 48 | |
| 20260831213603 | 73 | 190 | 6.1 | 18.2 | 0.00 | 0.00 | 0.00 | 51 | |
| 20260831212703 | 74 | 201 | 4.3 | 11.3 | 0.00 | 0.00 | 0.00 | 53 | |
| 20260831211803 | 70 | 109 | 7.8 | 17.4 | 0.00 | 0.00 | 0.00 | 49 | |
| 20260831210903 | 68 | 122 | 7.8 | 19.1 | 0.00 | 0.00 | 0.00 | 46 | |
| 20260831210003 | 70 | 136 | 7.8 | 15.6 | 0.00 | 0.00 | 0.00 | 43 | |
| 20260831205403 | 70 | 148 | 6.1 | 15.6 | 0.00 | 0.00 | 0.00 | 39 | |
| 20260831204503 | 71 | 146 | 6.1 | 13.0 | 0.00 | 0.00 | 0.00 | 43 | |
| 20260831203603 | 71 | 136 | 7.0 | 15.6 | 0.00 | 0.00 | 0.00 | 45 | |
| 20260831202912 | 72 | 135 | 7.0 | 11.3 | 0.00 | 0.00 | 0.00 | 46 |